Home > Weather > Basseterre > Past weeks

Flag for Saint Kitts and Nevis Past Weather in Basseterre, Saint Kitts and Nevis — Yesterday and Last 2 Weeks

Now
82 °F

Passing clouds.


Feels Like: 89 °F
Forecast: 82 / 87 °F
Wind: 12 mph from Northeast

Location: Golden Rock

Current Time: Jul 28, 2016 at 8:31:06 PM

Latest Report: Jul 28, 2016 at 8:00 PM


Visibility: N/A

Pressure: 29.98 "Hg

Humidity: 79%

Dew Point: 75 °F

Location of BasseterreLocation

Past Weather in Basseterre — Graph

°F

Basseterre Temperature Yesterday

Maximum temperature yesterday: 88 °F (at 12:00 PM)
Minimum temperature yesterday: 82 °F (at 6:00 AM)
Average temperature yesterday: 85 °F

High & Low Weather Summary for the Past Weeks

 TemperatureHumidityPressure
High90 °F (Jul 15, 2:00 PM)94% (Jul 20, 9:00 PM)31.45 "Hg (Jul 20, 9:00 PM)
Low75 °F (Jul 24, 7:00 PM)37% (Jul 23, 6:00 AM)29.95 "Hg (Jul 15, 3:00 PM)
Average84 °F76%30.02 "Hg
* Reported Jul 13 7:00 PM — Jul 28 7:00 PM, Basseterre, Weather by CustomWeather, © 2016

Note: Actual official high and low records may vary slightly from our data, if they occured in-between our weather recording intervals... More about our weather records

Advertising

Basseterre Weather History for the Previous 24 Hours

Scroll right to see more
 ConditionsComfort  
Time TempWeatherWind HumidityBarometerVisibility
7:00 PM
Thu, Jul 28
82 °FPassing clouds.9 mph84%29.98 "HgN/A
6:00 PM84 °FPassing clouds.13 mph74%29.95 "HgN/A
5:00 PM84 °FPassing clouds.12 mph74%29.95 "HgN/A
4:00 PM86 °FPassing clouds.14 mph75%29.95 "HgN/A
3:00 PM86 °FPassing clouds.10 mph70%29.98 "HgN/A
2:00 PM88 °FPassing clouds.12 mph62%29.98 "HgN/A
1:00 PM86 °FPassing clouds.13 mph70%29.98 "HgN/A
12:00 PM86 °FPassing clouds.14 mph75%30.01 "HgN/A
11:00 AM88 °FPassing clouds.12 mph70%30.04 "HgN/A
10:00 AM86 °FPassing clouds.14 mph75%30.04 "HgN/A
9:00 AM84 °FScattered clouds.14 mph79%30.01 "HgN/A
8:00 AM84 °FPassing clouds.10 mph74%30.01 "HgN/A
7:00 AM82 °FPassing clouds.5 mph79%30.01 "HgN/A
6:00 AM81 °FPassing clouds.5 mph84%30.01 "HgN/A
10:00 PM
Wed, Jul 27
82 °FPassing clouds.9 mph84%30.04 "HgN/A
9:00 PM82 °FPassing clouds.9 mph84%30.04 "HgN/A
8:00 PM82 °FPassing clouds.8 mph84%30.01 "HgN/A
Weather by CustomWeather, © 2016

See weather overviewHow to use our weather pages